Weather History for Nantucket, MA

Change the Weather History Date:

Tuesday, December 4, 2012

  Actual Average Record
Temperature  
Mean Temperature 44 °F -  
Max Temperature 52 °F 43 °F 60 °F (1998)
Min Temperature 37 °F 31 °F 8 °F (1976)
Degree Days  
Heating Degree Days 20    
Moisture  
Dew Point 44 °F    
Average Humidity 97    
Maximum Humidity 100    
Minimum Humidity 83    
Precipitation  
Precipitation 0.01 in - - ()
Sea Level Pressure  
Sea Level Pressure 30.27 in    
Wind  
Wind Speed 6 mph (ESE)    
Max Wind Speed 14 mph    
Max Gust Speed -    
Visibility 5 miles    
Events Fog , Rain    
Averages and records for this station are not official NWS values.
T = Trace of Precipitation, MM = Missing Value Source: NWS Daily Summary

Daily Weather History Graph

Daily Weather History Graph

Search for Another Location

Airport:

Trip Planner

Search our weather history database for the weather conditions in past years. The results will help you decide how hot, cold, wet, or windy it might be!

Date:

Astronomy

Dec. 04, 2012 Rise Set
Actual Time 6:49 AM EST 4:11 PM EST
Civil Twilight 6:19 AM EST 4:42 PM EST
Nautical Twilight 5:44 AM EST 5:16 PM EST
Astronomical Twilight 5:11 AM EST 5:49 PM EST
Moon 9:57 PM EST (12/4) 10:40 AM EST (12/4)
Length of Visible Light 10h 23m
Length of Day
9h 21m
Waning Gibbous, 69% of the Moon is Illuminated
Dec 4
Waning Gibbous
Dec 6
Last Quarter
Dec 13
New
Dec 20
First Quarter
Dec 28
Full

Hourly Weather History & Observations

Time (EST) Temp. Windchill Dew Point Humidity Pressure Visibility Wind Dir Wind Speed Gust Speed Precip Events Conditions
12:11 AM 41.0 °F 39.0 °F 39.2 °F 93% 30.29 in 2.5 mi NE 3.5 mph - N/A   Clear
12:20 AM 39.2 °F - 39.2 °F 100% 30.29 in 1.2 mi Calm Calm - N/A   Clear
12:28 AM 39.2 °F - 39.2 °F 100% 30.29 in 0.5 mi Calm Calm - N/A Fog Fog
1:03 AM 37.4 °F 33.8 °F 37.4 °F 100% 30.29 in 1.0 mi ENE 4.6 mph - N/A   Clear
1:08 AM 37.4 °F 33.8 °F 37.4 °F 100% 30.29 in 4.0 mi ENE 4.6 mph - N/A   Clear
1:36 AM 39.2 °F 37.0 °F 39.2 °F 100% 30.29 in 1.2 mi East 3.5 mph - N/A   Clear
1:45 AM 37.4 °F 33.8 °F 37.4 °F 100% 30.30 in 0.5 mi East 4.6 mph - N/A Fog Fog
1:53 AM 37.0 °F 34.5 °F 37.0 °F 100% 30.30 in 1.0 mi East 3.5 mph - N/A   Clear
2:05 AM 37.4 °F 34.9 °F 37.4 °F 100% 30.30 in 0.2 mi East 3.5 mph - N/A Fog Fog
2:14 AM 37.4 °F 33.8 °F 37.4 °F 100% 30.30 in 0.5 mi East 4.6 mph - N/A Fog Fog
2:27 AM - - - N/A% 30.30 in 0.2 mi East 4.6 mph - N/A Fog Fog
2:41 AM 42.8 °F 38.6 °F 42.8 °F 100% 30.30 in 1.0 mi East 6.9 mph - N/A   Clear
2:47 AM 42.8 °F 39.3 °F 42.8 °F 100% 30.30 in 3.0 mi East 5.8 mph - N/A   Clear
2:50 AM 41.0 °F 38.0 °F 41.0 °F 100% 30.30 in 1.5 mi East 4.6 mph - N/A   Clear
2:53 AM 39.9 °F 35.8 °F 39.9 °F 100% 30.30 in 1.0 mi East 5.8 mph - N/A   Clear
3:05 AM 42.8 °F 38.6 °F 42.8 °F 100% 30.30 in 3.0 mi East 6.9 mph - N/A   Clear
3:27 AM - - - N/A% 30.30 in 1.8 mi East 6.9 mph - N/A   Clear
3:41 AM 42.8 °F 38.6 °F 42.8 °F 100% 30.29 in 0.8 mi East 6.9 mph - N/A   Mist
3:53 AM 43.0 °F 39.5 °F 42.1 °F 97% 30.30 in 0.5 mi East 5.8 mph - N/A Fog Fog
4:20 AM 41.0 °F 36.4 °F 41.0 °F 100% 30.30 in 0.5 mi ESE 6.9 mph - N/A Fog Fog
4:53 AM 41.0 °F 36.4 °F 41.0 °F 100% 30.31 in 0.2 mi East 6.9 mph - N/A Fog Fog
4:59 AM 42.8 °F 38.6 °F 42.8 °F 100% 30.31 in 0.5 mi East 6.9 mph - N/A Fog Fog
5:12 AM 42.8 °F 38.6 °F 42.8 °F 100% 30.31 in 0.5 mi East 6.9 mph - N/A Fog Fog
5:33 AM 42.8 °F 38.0 °F 42.8 °F 100% 30.31 in 1.2 mi East 8.1 mph - N/A   Clear
5:40 AM 42.8 °F 38.0 °F 42.8 °F 100% 30.31 in 3.0 mi East 8.1 mph - N/A   Clear
5:53 AM 42.1 °F 37.7 °F 42.1 °F 100% 30.31 in 7.0 mi East 6.9 mph - N/A   Clear
6:53 AM 42.1 °F 37.7 °F 42.1 °F 100% 30.33 in 4.0 mi ESE 6.9 mph - N/A   Clear
7:53 AM 46.0 °F 43.1 °F 46.0 °F 100% 30.34 in 7.0 mi ESE 5.8 mph - N/A   Clear
8:53 AM 48.9 °F - 48.0 °F 97% 30.34 in 10.0 mi SE 10.4 mph - N/A   Clear
9:53 AM 51.1 °F - 48.0 °F 89% 30.34 in 10.0 mi SSE 9.2 mph - N/A   Clear
10:53 AM 52.0 °F - 46.9 °F 83% 30.31 in 10.0 mi SSE 11.5 mph - N/A   Clear
11:53 AM 52.0 °F - 46.9 °F 83% 30.29 in 10.0 mi South 10.4 mph - N/A   Scattered Clouds
12:53 PM 51.1 °F - 46.9 °F 86% 30.27 in 10.0 mi South 10.4 mph - N/A   Overcast
1:53 PM 50.0 °F - 46.9 °F 89% 30.25 in 10.0 mi South 9.2 mph - N/A   Overcast
2:53 PM 50.0 °F - 46.9 °F 89% 30.25 in 10.0 mi South 8.1 mph - N/A   Overcast
3:53 PM 50.0 °F - 46.9 °F 89% 30.24 in 10.0 mi SSE 10.4 mph - N/A   Overcast
4:53 PM 48.9 °F - 48.0 °F 97% 30.23 in 10.0 mi South 9.2 mph - 0.00 in Rain Light Rain
5:53 PM 50.0 °F - 48.0 °F 93% 30.21 in 10.0 mi SSE 10.4 mph - 0.01 in   Overcast
6:53 PM 50.0 °F - 48.9 °F 96% 30.20 in 9.0 mi SSE 10.4 mph - N/A   Overcast
7:53 PM 50.0 °F - 48.9 °F 96% 30.18 in 10.0 mi SSE 12.7 mph - N/A   Clear
8:53 PM 50.0 °F - 48.9 °F 96% 30.16 in 10.0 mi SSE 10.4 mph - N/A   Overcast
9:53 PM 50.0 °F - 48.9 °F 96% 30.13 in 10.0 mi SSE 10.4 mph - N/A   Mostly Cloudy
10:53 PM 51.1 °F - 50.0 °F 96% 30.10 in 9.0 mi SSE 12.7 mph - N/A   Clear
11:53 PM 52.0 °F - 50.0 °F 93% 30.07 in 9.0 mi South 13.8 mph - N/A   Clear